Time,TemperatureF,DewpointF,PressureIn,WindDirection,WindDirectionDegrees,WindSpeedMPH,WindSpeedGustMPH,Humidity,HourlyPrecipIn,Conditions,Clouds,dailyrainin,SoftwareType,DateUTC
2015-05-25 00:00:00,62.6,48.1,30.16,ENE,75,0.0,0.0,59,0.00,,,0.00,Wunderground v.1.15,2015-05-25 04:00:00,
2015-05-25 00:10:00,61.9,48.3,30.16,ENE,75,0.0,0.0,61,0.00,,,0.00,Wunderground v.1.15,2015-05-25 04:10:00,
2015-05-25 00:20:00,61.4,48.7,30.16,ENE,75,0.0,0.0,63,0.00,,,0.00,Wunderground v.1.15,2015-05-25 04:20:00,
2015-05-25 00:30:00,60.8,48.5,30.16,ENE,75,0.0,0.0,64,0.00,,,0.00,Wunderground v.1.15,2015-05-25 04:30:00,
2015-05-25 00:40:00,60.4,49.0,30.16,ENE,75,0.0,0.0,66,0.00,,,0.00,Wunderground v.1.15,2015-05-25 04:40:00,
2015-05-25 00:50:00,60.0,48.6,30.16,ENE,75,0.0,0.0,66,0.00,,,0.00,Wunderground v.1.15,2015-05-25 04:50:00,
2015-05-25 01:00:00,59.6,49.0,30.16,ENE,75,0.0,0.0,68,0.00,,,0.00,Wunderground v.1.15,2015-05-25 05:00:00,
2015-05-25 01:10:00,59.4,48.8,30.16,ENE,75,0.0,0.0,68,0.00,,,0.00,Wunderground v.1.15,2015-05-25 05:10:00,
2015-05-25 01:20:00,59.0,49.2,30.16,ENE,75,0.0,0.0,70,0.00,,,0.00,Wunderground v.1.15,2015-05-25 05:20:00,
2015-05-25 01:30:00,58.2,49.2,30.15,ENE,75,0.0,0.0,72,0.00,,,0.00,Wunderground v.1.15,2015-05-25 05:30:00,
2015-05-25 01:40:00,57.7,49.1,30.15,ENE,75,0.0,0.0,73,0.00,,,0.00,Wunderground v.1.15,2015-05-25 05:40:00,
2015-05-25 01:45:00,57.5,48.9,30.15,ENE,75,0.0,0.0,73,0.00,,,0.00,Wunderground v.1.15,2015-05-25 05:45:00,
2015-05-25 01:55:00,57.1,48.9,30.15,ENE,75,0.0,0.0,74,0.00,,,0.00,Wunderground v.1.15,2015-05-25 05:55:00,
2015-05-25 02:05:00,56.6,49.1,30.15,ENE,75,0.0,0.0,76,0.00,,,0.00,Wunderground v.1.15,2015-05-25 06:05:00,
2015-05-25 02:15:00,56.1,49.3,30.15,ENE,75,0.0,0.0,78,0.00,,,0.00,Wunderground v.1.15,2015-05-25 06:15:00,
2015-05-25 02:20:00,56.0,49.2,30.15,ENE,75,0.0,0.0,78,0.00,,,0.00,Wunderground v.1.15,2015-05-25 06:20:00,
2015-05-25 02:30:00,55.9,49.1,30.15,ENE,75,0.0,0.0,78,0.00,,,0.00,Wunderground v.1.15,2015-05-25 06:30:00,
2015-05-25 02:40:00,55.7,49.3,30.15,ENE,75,0.0,0.0,79,0.00,,,0.00,Wunderground v.1.15,2015-05-25 06:40:00,
2015-05-25 02:50:00,55.5,49.1,30.15,ENE,75,0.0,0.0,79,0.00,,,0.00,Wunderground v.1.15,2015-05-25 06:50:00,
2015-05-25 03:00:00,55.3,-99.9,30.15,ENE,75,0.0,0.0,255,0.00,,,0.00,Wunderground v.1.15,2015-05-25 07:00:00,
2015-05-25 03:05:00,55.2,49.1,30.15,ENE,75,0.0,0.0,80,0.00,,,0.00,Wunderground v.1.15,2015-05-25 07:05:00,
2015-05-25 03:10:00,55.1,49.0,30.15,ENE,75,0.0,0.0,80,0.00,,,0.00,Wunderground v.1.15,2015-05-25 07:10:00,
2015-05-25 03:20:00,54.8,48.7,30.15,ENE,75,0.0,0.0,80,0.00,,,0.00,Wunderground v.1.15,2015-05-25 07:20:00,
2015-05-25 03:30:00,54.5,49.1,30.15,ENE,75,0.0,0.0,82,0.00,,,0.00,Wunderground v.1.15,2015-05-25 07:30:00,
2015-05-25 03:40:00,54.4,49.0,30.15,ENE,75,0.0,0.0,82,0.00,,,0.00,Wunderground v.1.15,2015-05-25 07:40:00,
2015-05-25 03:45:00,54.4,49.3,30.15,ENE,75,0.0,0.0,83,0.00,,,0.00,Wunderground v.1.15,2015-05-25 07:45:00,
2015-05-25 03:55:00,54.2,49.1,30.15,ENE,75,0.0,0.0,83,0.00,,,0.00,Wunderground v.1.15,2015-05-25 07:55:00,
2015-05-25 04:20:00,54.1,49.4,30.15,ENE,75,0.0,0.0,84,0.00,,,0.00,Wunderground v.1.15,2015-05-25 08:20:00,